COSMOS 249 DEB, 6752

Orbit data source: Space-Track

COSMOS 249 DEB, 6752 is space debris in LEO originally from a launch on Sun, 20 Oct 1968 UTC launched from the Tyuratam Missile And Space Complex (TTMTR). Debris objects in space refer to the collection of defunct objects orbiting the Earth. Examples of debris include non-operational satellites, rocket bodies, and fragments generated from explosions, collisions, or faulty payload assembly.

Loading next visibility...
Identifier
6752, 1968-091CJ
Orbit
LEO
Country
Flag of CISCIS
Related business
Manufacturer
Unknown
Mission
Spacecraft
Bus & Motor
Unknown
Mass
Unknown
Launch date (UTC)
1968-10-20 (57 years ago)
Launch vehicle
Unknown
Launch site
Tyuratam Missile And Space Complex (TTMTR)
Object type
Payload
Rocket body
Debris
Shape & HBR
Unknown shape, 0.1 m
Radar Cross Section
Small (<0.1 m²)

Expand to show TLE details & history
Last TLE update: 11 hours ago

TLE from 11 hours ago
0 COSMOS 249 DEB
1 06752U 68091CJ  25346.90732507  .00005361  00000-0  46768-2 0  9995
2 06752  62.2737 255.5829 0656075  98.1743 269.4164 13.16408247634737
Epoch: 2025-12-12T21:46Z
TLE epoch observation values (Epoch: 2025-12-12T21:46:32.886Z)
Latitude
Longitude
-152.89634°
Altitude
1,237.678 km
Speed
7.219 km/s
True Right ascension
17h 02m 19s
True Declination
0° 00' 00"
Sunlit
Object was in daylight at epoch
Visualization orbit readout
Latitude
Unknown
Longitude
Unknown
Altitude
Unknown
Speed
Unknown
Apparent Right ascension
Unknown
Apparent Declination
Unknown
Sunlit
N/A
Visualization observer readout
Local Sidereal Time
07:30:36
Azimuth
Unknown
Elevation
Unknown
Doppler factor
Unknown
Orbital elements
Apogee altitude
1,694.465 km
Perigee altitude
700.434 km
Semi-major axis
7,575.586 km
Eccentricity
0.06561
Inclination
62.2737°
RAAN
255.5829°
Arg. of periapsis
98.1743°
True anomaly
261.92638°
Mean anomaly
269.4164°
Eccentric anomaly
265.66811°
Mean motion
3.29169 °/min
Orbital period
109.37 mins
BSTAR
0.0046768
Loading maneuver chart data...
Computing Atmospheric mass density...
Loading historical data...
Loading historical data...
Loading historical data...
Loading historical data...
Loading historical data...
Loading historical data...
Loading historical data...

Documentation

Showing up to 5 results
|